AirNav   Phillips 66 Aviation Fuel
 
 694 users online  

73KY Brooks Field Airport
Brooks, Kentucky, USA

GOING TO BROOKS?


FAA INFORMATION EFFECTIVE 06 DECEMBER 2018

Location

FAA Identifier: 73KY
Lat/Long: 38-01-59.9000N / 085-48-03.0000W
38-01.998333N / 085-48.050000W
38.0333056 / -85.8008333
(estimated)
Elevation: 480 ft. / 146 m (estimated)
From city: 5 miles ENE of BROOKS, KY
Time zone: UTC -5 (UTC -4 during Daylight Saving Time)
Zip code: 40165

Airport Operations

Airport use: Private use. Permission required prior to landing
Activation date: 09/2004
Control tower: no
ARTCC: INDIANAPOLIS CENTER
FSS: LOUISVILLE FLIGHT SERVICE STATION
Attendance: UNATNDD
Wind indicator: yes
Segmented circle: no

Airport Communications

WX ASOS at SDF (9 nm N): PHONE 502-367-1492
WX ASOS at LOU (13 nm NE): 118.275 (502-473-0693)
WX AWOS-3 at BRY (19 nm SE): 119.925 (502-348-1867)
  • 122.75

Nearby radio navigation aids

VOR radial/distance  VOR name  Freq  Var
FTKr048/11.1FORT KNOX VOR/DME109.6001W
IIUr247/11.4LOUISVILLE VORTAC114.8001E
BQMr213/13.4BOWMAN VOR/DME112.2004W
MYSr069/(22.6)MYSTIC VOR108.2001W
EWOr345/24.8NEW HOPE VOR/DME110.8001E

 
NDB name  Hdg/Dist  Freq  Var  ID
GODMAN065/9.439603WGOI --. --- ..
LAANG234/10.441404WLK .-.. -.-

Airport Services

Runway Information

Runway 6/24

Dimensions: 2150 x 80 ft. / 655 x 24 m
Surface: turf
RUNWAY 6  RUNWAY 24
Traffic pattern: leftright

Airport Ownership and Management from official FAA records

Ownership: Privately-owned
Owner: DWAYNE E. HARGROVE
2152 MARTIN HILL RD.
SHEPHERDSVILLE, KY 40165
Phone (502) 215-4095
Manager: DWAYNE E. HARGROVE
2152 MARTIN HILL RD.
SHEPHERDSVILLE, KY 40165
Phone (502) 215-4095

Airport Operational Statistics

Aircraft based on the field: 6
Single engine airplanes: 6
    

Additional Remarks

150 FT PLINE 1 NM NE OF RY 06/24.
(CONTACT TITLE) OWNER - DEHARGROVE@WINDSTREAM.NET

Instrument Procedures

There are no published instrument procedures at 73KY.

Some nearby airports with instrument procedures:

KSDF - Louisville International Airport-Standiford Field (9 nm N)
KFTK - Godman Army Airfield (11 nm SW)
KLOU - Bowman Field Airport (13 nm NE)
KBRY - Samuels Field Airport (19 nm SE)
KJVY - Clark Regional Airport (20 nm N)
 
Loc | Ops | Rwys | IFR | FBO | Links
Com | Nav | Svcs | Stats | Notes


 
Area around 73KY (Brooks Field Airport)
 
Road maps at: MapQuest Bing Google
 
Aerial photo
WARNING: Photo may not be current or correct
Aerial photo of 73KY (Brooks Field Airport)
Photo taken 05-Oct-2009

Do you have a better or more recent aerial photo of Brooks Field Airport that you would like to share? If so, please send us your photo.

 
Sectional chart

 
Airport distance calculator
Flying to Brooks Field Airport? Find the distance to fly.

From to 73KY

Sunrise and sunset
Times for 12-Dec-2018
 Local
(UTC-5)
 Zulu
(UTC)
Morning civil twilight07:2212:22
Sunrise07:5112:51
Sunset17:2322:23
Evening civil twilight17:5222:52

Current date and time
Zulu (UTC)  13-Dec-2018 04:21:54
Local (UTC-5)  12-Dec-2018 23:21:54
 
METAR
KSDF 
10nm N 
130356Z 21014G19KT 10SM BKN037 11/03 A3002 RMK AO2 SLP166 T01060028
KFTK 
12nm SW 
130356Z 21010KT 10SM OVC033 10/02 A3004 RMK AO2A SLP178 T00980024 $
KLOU 
13nm NE 
130353Z AUTO 21011KT 10SM CLR 11/02 A3001 RMK AO2 SLP164 T01060022
KEKX 
19nm S 
130355Z AUTO 24013G17KT 10SM OVC029 09/03 A3005 RMK AO2 T00920030
KBRY 
19nm SE 
130355Z AUTO 22008KT 10SM OVC034 09/02 A3004 RMK AO1
TAF
KSDF 
10nm N 
121720Z 1218/1324 21011G20KT P6SM FEW050 SCT200 FM122100 22012KT P6SM BKN090 FM130000 21009KT P6SM BKN040 FM131200 20008KT P6SM OVC025
KFTK 
12nm SW 
130100Z 1301/1407 22009KT 9999 BKN030 510202 QNH2999INS BECMG 1304/1305 21009KT 9999 BKN010 OVC020 QNH3004INS BECMG 1307/1308 19009KT 9000 -RA OVC005 QNH3006INS BECMG 1315/1316 15009KT 9999 NSW BKN010 OVC050 QNH3010INS BECMG 1317/1318 13009KT 9999 FEW020 OVC080 QNH3008INS TX11/1321Z TN03/1311Z
NOTAMs
Click for the latest NOTAMs
NOTAMs are issued by the DoD/FAA and will open in a separate window not controlled by AirNav.

 

 
 

Would you like to see your business listed on this page?

 If your business provides an interesting product or service to pilots, flight crews, aircraft, or users of the Brooks Field Airport, you should consider listing it here.  To start the listing process, click on the button below
 
Add a business
 

Other Pages about Brooks Field Airport

Update a link
 
Copyright © AirNav, LLC. All rights reserved. Privacy Policy  Contact